| time (UTC) | temp F | wind direction | speed MPH | gust MPH | rain 1hr in | rain 24hr in | rain mn in | humidity % | barometer mb |
| 20260507051521 | 55 | 317 | 0.0 | 4.0 | 0.00 | 0.00 | 0.00 | 76 | 1021.4 |
| 20260507051020 | 55 | 295 | 0.0 | 6.0 | 0.00 | 0.00 | 0.00 | 76 | 1021.3 |
| 20260507050522 | 55 | 96 | 1.0 | 6.0 | 0.00 | 0.00 | 0.00 | 76 | 1021.3 |
| 20260507050037 | 55 | 309 | 0.0 | 3.0 | 0.00 | 0.00 | 0.00 | 76 | 1021.4 |
| 20260507045519 | 55 | 349 | 1.0 | 5.0 | 0.00 | 0.00 | 0.00 | 75 | 1021.3 |
| 20260507045020 | 55 | 343 | 2.0 | 7.0 | 0.00 | 0.00 | 0.00 | 75 | 1021.3 |
| 20260507044519 | 56 | 318 | 1.0 | 7.0 | 0.00 | 0.00 | 0.00 | 75 | 1021.3 |
| 20260507044018 | 56 | 292 | 1.0 | 7.0 | 0.00 | 0.00 | 0.00 | 75 | 1021.5 |
| 20260507043519 | 56 | 65 | 2.0 | 6.0 | 0.00 | 0.00 | 0.00 | 75 | 1021.3 |
| 20260507043018 | 56 | 349 | 1.0 | 5.0 | 0.00 | 0.00 | 0.00 | 75 | 1021.3 |
| 20260507042519 | 56 | 311 | 1.0 | 5.0 | 0.00 | 0.00 | 0.00 | 75 | 1021.3 |
| 20260507042018 | 56 | 248 | 0.0 | 7.0 | 0.00 | 0.00 | 0.00 | 75 | 1021.2 |
| 20260507041517 | 56 | 238 | 2.0 | 7.0 | 0.00 | 0.00 | 0.00 | 75 | 1021.2 |
| 20260507041019 | 56 | 110 | 0.0 | 7.0 | 0.00 | 0.00 | 0.00 | 75 | 1021.2 |
| 20260507040517 | 57 | 330 | 2.0 | 7.0 | 0.00 | 0.00 | 0.00 | 75 | 1021.3 |
| 20260507040016 | 57 | 42 | 1.0 | 8.0 | 0.00 | 0.00 | 0.00 | 74 | 1021.2 |
| 20260507035516 | 57 | 274 | 1.0 | 8.0 | 0.00 | 0.00 | 0.00 | 74 | 1021.1 |
| 20260507035017 | 57 | 338 | 3.0 | 8.0 | 0.00 | 0.00 | 0.00 | 74 | 1021.1 |
| 20260507034515 | 57 | 252 | 3.0 | 8.0 | 0.00 | 0.00 | 0.00 | 74 | 1020.9 |
| 20260507034015 | 58 | 283 | 1.0 | 6.0 | 0.00 | 0.00 | 0.00 | 74 | 1020.9 |
| 20260507033615 | 58 | 295 | 2.0 | 6.0 | 0.00 | 0.00 | 0.00 | 74 | 1020.8 |
| 20260507033016 | 58 | 241 | 2.0 | 4.0 | 0.00 | 0.00 | 0.00 | 74 | 1020.7 |
| 20260507032514 | 58 | 328 | 1.0 | 4.0 | 0.00 | 0.00 | 0.00 | 74 | 1020.7 |
| 20260507032014 | 58 | 188 | 0.0 | 7.0 | 0.00 | 0.00 | 0.00 | 74 | 1020.6 |
| 20260507031514 | 58 | 317 | 2.0 | 7.0 | 0.00 | 0.00 | 0.00 | 74 | 1020.6 |
| 20260507031015 | 59 | 328 | 2.0 | 6.0 | 0.00 | 0.00 | 0.00 | 74 | 1020.5 |
| 20260507030514 | 59 | 311 | 1.0 | 6.0 | 0.00 | 0.00 | 0.00 | 74 | 1020.5 |
| 20260507030016 | 59 | 345 | 0.0 | 6.0 | 0.00 | 0.00 | 0.00 | 74 | 1020.4 |
| 20260507025512 | 59 | 252 | 0.0 | 2.0 | 0.00 | 0.00 | 0.00 | 74 | 1020.3 |
| 20260507025013 | 59 | 122 | 0.0 | 6.0 | 0.00 | 0.00 | 0.00 | 74 | 1020.3 |
| 20260507024514 | 59 | 304 | 2.0 | 6.0 | 0.00 | 0.00 | 0.00 | 73 | 1020.1 |
| 20260507024012 | 59 | 256 | 0.0 | 6.0 | 0.00 | 0.00 | 0.00 | 73 | 1020.1 |
| 20260507023513 | 60 | 311 | 1.0 | 6.0 | 0.00 | 0.00 | 0.00 | 73 | 1020.1 |
| 20260507023011 | 60 | 325 | 1.0 | 8.0 | 0.00 | 0.00 | 0.00 | 73 | 1020.0 |
| 20260507022511 | 60 | 72 | 2.0 | 8.0 | 0.00 | 0.00 | 0.00 | 73 | 1020.0 |
| 20260507022013 | 60 | 299 | 1.0 | 4.0 | 0.00 | 0.00 | 0.00 | 73 | 1020.1 |
| 20260507021510 | 61 | 35 | 0.0 | 4.0 | 0.00 | 0.00 | 0.00 | 72 | 1020.1 |
| 20260507021011 | 61 | 17 | 0.0 | 7.0 | 0.00 | 0.00 | 0.00 | 72 | 1020.1 |
| 20260507020511 | 61 | 55 | 1.0 | 8.0 | 0.00 | 0.00 | 0.00 | 72 | 1020.1 |
| 20260507020011 | 61 | 298 | 2.0 | 6.0 | 0.00 | 0.00 | 0.00 | 72 | 1020.0 |
| 20260507015510 | 61 | 234 | 1.0 | 5.0 | 0.00 | 0.00 | 0.00 | 72 | 1020.1 |
| 20260507015012 | 62 | 294 | 1.0 | 5.0 | 0.00 | 0.00 | 0.00 | 72 | 1020.2 |
| 20260507014510 | 62 | 11 | 1.0 | 10.0 | 0.00 | 0.00 | 0.00 | 72 | 1020.2 |
| 20260507014009 | 62 | 284 | 2.0 | 10.0 | 0.00 | 0.00 | 0.00 | 71 | 1020.2 |
| 20260507013509 | 62 | 295 | 2.0 | 7.0 | 0.00 | 0.00 | 0.00 | 71 | 1020.3 |
| 20260507013008 | 62 | 34 | 2.0 | 7.0 | 0.00 | 0.00 | 0.00 | 71 | 1020.3 |
| 20260507012510 | 62 | 181 | 1.0 | 5.0 | 0.00 | 0.00 | 0.00 | 71 | 1020.2 |
| 20260507012011 | 63 | 94 | 1.0 | 5.0 | 0.00 | 0.00 | 0.00 | 71 | 1020.3 |
| 20260507011508 | 63 | 51 | 1.0 | 7.0 | 0.00 | 0.00 | 0.00 | 71 | 1020.2 |
| 20260507011007 | 63 | 198 | 2.0 | 7.0 | 0.00 | 0.00 | 0.00 | 70 | 1020.2 |
| 20260507010511 | 63 | 146 | 0.0 | 8.0 | 0.00 | 0.00 | 0.00 | 71 | 1020.2 |
| 20260507010009 | 63 | 23 | 2.0 | 8.0 | 0.00 | 0.00 | 0.00 | 70 | 1020.3 |
| 20260507005507 | 64 | 327 | 1.0 | 5.0 | 0.00 | 0.00 | 0.00 | 70 | 1020.2 |
| 20260507005007 | 64 | 336 | 1.0 | 7.0 | 0.00 | 0.00 | 0.00 | 69 | 1020.1 |
| 20260507004506 | 64 | 309 | 2.0 | 7.0 | 0.00 | 0.00 | 0.00 | 69 | 1020.2 |
| 20260507004007 | 65 | 208 | 0.0 | 7.0 | 0.00 | 0.00 | 0.00 | 69 | 1020.1 |
| 20260507003506 | 65 | 316 | 1.0 | 7.0 | 0.00 | 0.00 | 0.00 | 69 | 1020.1 |
| 20260507003005 | 66 | 110 | 1.0 | 4.0 | 0.00 | 0.00 | 0.00 | 68 | 1020.1 |
| 20260507002505 | 66 | 105 | 0.0 | 4.0 | 0.00 | 0.00 | 0.00 | 69 | 1020.1 |
| 20260507002005 | 65 | 335 | 0.0 | 7.0 | 0.00 | 0.00 | 0.00 | 70 | 1019.8 |
| 20260507001506 | 65 | 297 | 3.0 | 7.0 | 0.00 | 0.00 | 0.00 | 69 | 1019.9 |
| 20260507001006 | 66 | 327 | 1.0 | 4.0 | 0.00 | 0.00 | 0.00 | 69 | 1020.0 |
| 20260507000505 | 66 | 325 | 0.0 | 5.0 | 0.00 | 0.00 | 0.00 | 70 | 1019.9 |
| 20260507000006 | 65 | 283 | 0.0 | 7.0 | 0.00 | 0.00 | 0.00 | 70 | 1020.0 |
| 20260506235505 | 66 | 304 | 2.0 | 7.0 | 0.00 | 0.00 | 0.00 | 70 | 1019.9 |
| 20260506235003 | 66 | 264 | 2.0 | 6.0 | 0.00 | 0.00 | 0.00 | 70 | 1019.9 |
| 20260506234502 | 65 | 293 | 1.0 | 4.0 | 0.00 | 0.00 | 0.00 | 71 | 1019.9 |
| 20260506234002 | 66 | 277 | 1.0 | 5.0 | 0.00 | 0.00 | 0.00 | 70 | 1019.9 |
| 20260506233502 | 66 | 304 | 1.0 | 5.0 | 0.00 | 0.00 | 0.00 | 70 | 1020.0 |
| 20260506233002 | 66 | 302 | 1.0 | 5.0 | 0.00 | 0.00 | 0.00 | 70 | 1019.9 |
| 20260506232500 | 66 | 278 | 1.0 | 4.0 | 0.00 | 0.00 | 0.00 | 70 | 1020.0 |
| 20260506232101 | 66 | 34 | 0.0 | 3.0 | 0.00 | 0.00 | 0.00 | 71 | 1019.9 |
| 20260506231600 | 66 | 290 | 0.0 | 2.0 | 0.00 | 0.00 | 0.00 | 71 | 1020.0 |
| 20260506231101 | 66 | 98 | 0.0 | 3.0 | 0.00 | 0.00 | 0.00 | 71 | 1019.9 |
| 20260506230559 | 66 | 98 | 0.0 | 3.0 | 0.00 | 0.00 | 0.00 | 70 | 1020.0 |
| 20260506230104 | 66 | 61 | 0.0 | 2.0 | 0.00 | 0.00 | 0.00 | 70 | 1020.0 |
| 20260506225558 | 67 | 99 | 0.0 | 2.0 | 0.00 | 0.00 | 0.00 | 70 | 1020.2 |
| 20260506225059 | 66 | 321 | 0.0 | 3.0 | 0.00 | 0.00 | 0.00 | 70 | 1020.2 |
| 20260506224557 | 66 | 276 | 0.0 | 3.0 | 0.00 | 0.00 | 0.00 | 70 | 1020.2 |
| 20260506224058 | 66 | 318 | 0.0 | 1.0 | 0.00 | 0.00 | 0.00 | 70 | 1020.4 |
| 20260506223559 | 65 | 273 | 0.0 | 2.0 | 0.00 | 0.00 | 0.00 | 71 | 1020.3 |
| 20260506223103 | 65 | 108 | 0.0 | 4.0 | 0.00 | 0.00 | 0.00 | 72 | 1020.3 |
| 20260506222556 | 65 | 101 | 0.0 | 4.0 | 0.00 | 0.00 | 0.00 | 71 | 1020.5 |
| 20260506222056 | 65 | 309 | 1.0 | 4.0 | 0.00 | 0.00 | 0.00 | 70 | 1020.6 |
| 20260506221603 | 65 | 79 | 0.0 | 3.0 | 0.00 | 0.00 | 0.00 | 71 | 1020.5 |
| 20260506221056 | 65 | 297 | 0.0 | 3.0 | 0.00 | 0.00 | 0.00 | 72 | 1020.5 |
| 20260506220555 | 65 | 136 | 0.0 | 2.0 | 0.00 | 0.00 | 0.00 | 72 | 1020.5 |
| 20260506220056 | 65 | 245 | 0.0 | 3.0 | 0.00 | 0.00 | 0.00 | 70 | 1020.5 |
| 20260506215554 | 65 | 102 | 0.0 | 2.0 | 0.00 | 0.00 | 0.00 | 70 | 1020.5 |
| 20260506215054 | 66 | 338 | 0.0 | 2.0 | 0.00 | 0.00 | 0.00 | 69 | 1020.5 |
| 20260506214559 | 66 | 238 | 0.0 | 1.0 | 0.00 | 0.00 | 0.00 | 68 | 1020.6 |
| 20260506214053 | 66 | 251 | 0.0 | 3.0 | 0.00 | 0.00 | 0.00 | 69 | 1020.5 |
| 20260506213555 | 66 | 167 | 0.0 | 3.0 | 0.00 | 0.00 | 0.00 | 70 | 1020.6 |
| 20260506213057 | 66 | 85 | 0.0 | 2.0 | 0.00 | 0.00 | 0.00 | 70 | 1020.6 |
| 20260506212551 | 66 | 145 | 0.0 | 3.0 | 0.00 | 0.00 | 0.00 | 70 | 1020.5 |
| 20260506212051 | 66 | 139 | 1.0 | 3.0 | 0.00 | 0.00 | 0.00 | 70 | 1020.6 |
| 20260506211553 | 65 | 151 | 0.0 | 1.0 | 0.00 | 0.00 | 0.00 | 71 | 1020.7 |
| 20260506211051 | 64 | 95 | 0.0 | 2.0 | 0.00 | 0.00 | 0.00 | 71 | 1020.9 |
| 20260506210549 | 65 | 124 | 0.0 | 2.0 | 0.00 | 0.00 | 0.00 | 71 | 1020.9 |
| 20260506210049 | 65 | 116 | 0.0 | 3.0 | 0.00 | 0.00 | 0.00 | 71 | 1020.9 |
| 20260506205546 | 64 | 210 | 0.0 | 3.0 | 0.00 | 0.00 | 0.00 | 72 | 1020.9 |
| 20260506205045 | 64 | 258 | 0.0 | 3.0 | 0.00 | 0.00 | 0.00 | 73 | 1020.9 |
| 20260506204546 | 63 | 238 | 1.0 | 3.0 | 0.00 | 0.00 | 0.00 | 73 | 1021.1 |
| 20260506204044 | 63 | 276 | 0.0 | 2.0 | 0.00 | 0.00 | 0.00 | 73 | 1021.1 |
| 20260506203544 | 63 | 128 | 0.0 | 2.0 | 0.00 | 0.00 | 0.00 | 73 | 1021.0 |
| 20260506203044 | 64 | 353 | 0.0 | 2.0 | 0.00 | 0.00 | 0.00 | 72 | 1021.1 |
| 20260506202543 | 63 | 128 | 0.0 | 3.0 | 0.00 | 0.00 | 0.00 | 74 | 1021.1 |
| 20260506202046 | 63 | 253 | 0.0 | 3.0 | 0.00 | 0.00 | 0.00 | 73 | 1020.9 |
| 20260506201542 | 63 | 337 | 0.0 | 2.0 | 0.00 | 0.00 | 0.00 | 74 | 1020.9 |
| 20260506201043 | 62 | 273 | 0.0 | 1.0 | 0.00 | 0.00 | 0.00 | 74 | 1021.0 |
| 20260506200539 | 62 | 103 | 0.0 | 2.0 | 0.00 | 0.00 | 0.00 | 75 | 1021.0 |
| 20260506200038 | 61 | 225 | 0.0 | 2.0 | 0.00 | 0.00 | 0.00 | 76 | 1021.1 |
| 20260506195537 | 61 | 265 | 0.0 | 1.0 | 0.00 | 0.00 | 0.00 | 75 | 1021.1 |
| 20260506195038 | 61 | 253 | 0.0 | 3.0 | 0.00 | 0.00 | 0.00 | 75 | 1021.2 |
| 20260506194542 | 61 | 274 | 0.0 | 3.0 | 0.00 | 0.00 | 0.00 | 75 | 1021.2 |
| 20260506194037 | 61 | 291 | 1.0 | 2.0 | 0.00 | 0.00 | 0.00 | 75 | 1021.2 |
| 20260506193537 | 61 | 281 | 0.0 | 2.0 | 0.00 | 0.00 | 0.00 | 75 | 1021.3 |
| 20260506193046 | 61 | 127 | 0.0 | 1.0 | 0.00 | 0.00 | 0.00 | 75 | 1021.4 |
| 20260506192536 | 61 | 47 | 0.0 | 2.0 | 0.00 | 0.00 | 0.00 | 76 | 1021.4 |
| 20260506192035 | 61 | 49 | 0.0 | 2.0 | 0.00 | 0.00 | 0.00 | 76 | 1021.4 |
| 20260506191534 | 61 | 123 | 0.0 | 1.0 | 0.00 | 0.00 | 0.00 | 75 | 1021.3 |
| 20260506191034 | 61 | 151 | 0.0 | 2.0 | 0.00 | 0.00 | 0.00 | 75 | 1021.4 |
| 20260506190534 | 60 | 151 | 0.0 | 2.0 | 0.00 | 0.00 | 0.00 | 75 | 1021.3 |
| 20260506190032 | 60 | 243 | 0.0 | 1.0 | 0.00 | 0.00 | 0.00 | 76 | 1021.2 |
| 20260506185532 | 60 | 280 | 0.0 | 1.0 | 0.00 | 0.00 | 0.00 | 75 | 1021.1 |
| 20260506185034 | 60 | 300 | 0.0 | 2.0 | 0.00 | 0.00 | 0.00 | 76 | 1021.2 |
| 20260506184537 | 60 | 262 | 0.0 | 2.0 | 0.00 | 0.00 | 0.00 | 76 | 1021.1 |
| 20260506184032 | 60 | 290 | 0.0 | 1.0 | 0.00 | 0.00 | 0.00 | 75 | 1021.2 |
| 20260506183531 | 60 | 205 | 0.0 | 0.0 | 0.00 | 0.00 | 0.00 | 76 | 1021.2 |
| 20260506183029 | 60 | 168 | 0.0 | 1.0 | 0.00 | 0.00 | 0.00 | 76 | 1021.2 |
| 20260506182528 | 59 | 321 | 0.0 | 1.0 | 0.00 | 0.00 | 0.00 | 77 | 1021.1 |
| 20260506182027 | 59 | 314 | 0.0 | 1.0 | 0.00 | 0.00 | 0.00 | 76 | 1021.0 |
| 20260506181536 | 59 | 91 | 0.0 | 2.0 | 0.00 | 0.00 | 0.00 | 77 | 1021.0 |
| 20260506181026 | 59 | 8 | 0.0 | 2.0 | 0.00 | 0.00 | 0.00 | 77 | 1021.1 |
| 20260506180527 | 59 | 271 | 0.0 | 4.0 | 0.00 | 0.00 | 0.00 | 76 | 1021.1 |
| 20260506180026 | 59 | 291 | 1.0 | 4.0 | 0.00 | 0.00 | 0.00 | 77 | 1021.1 |
| 20260506175529 | 59 | 342 | 0.0 | 3.0 | 0.00 | 0.00 | 0.00 | 77 | 1021.0 |
| 20260506175024 | 58 | 333 | 1.0 | 3.0 | 0.00 | 0.00 | 0.00 | 77 | 1020.9 |
| 20260506174624 | 59 | 310 | 1.0 | 3.0 | 0.00 | 0.00 | 0.00 | 77 | 1021.0 |
| 20260506174026 | 58 | 335 | 0.0 | 2.0 | 0.00 | 0.00 | 0.00 | 77 | 1020.9 |
| 20260506173525 | 58 | 318 | 0.0 | 2.0 | 0.00 | 0.00 | 0.00 | 77 | 1020.9 |
| 20260506173033 | 58 | 312 | 0.0 | 3.0 | 0.00 | 0.00 | 0.00 | 78 | 1020.9 |
| 20260506172520 | 58 | 326 | 1.0 | 4.0 | 0.00 | 0.00 | 0.00 | 78 | 1020.9 |
| 20260506172020 | 58 | 276 | 0.0 | 4.0 | 0.00 | 0.00 | 0.00 | 77 | 1020.8 |
| 20260506171520 | 58 | 344 | 0.0 | 2.0 | 0.00 | 0.00 | 0.00 | 78 | 1020.8 |
| 20260506171020 | 58 | 15 | 0.0 | 4.0 | 0.00 | 0.00 | 0.00 | 78 | 1020.8 |
| 20260506170521 | 58 | 311 | 1.0 | 4.0 | 0.00 | 0.00 | 0.00 | 78 | 1020.8 |
| 20260506170018 | 58 | 12 | 0.0 | 2.0 | 0.00 | 0.00 | 0.00 | 78 | 1020.9 |
| 20260506165520 | 57 | 333 | 0.0 | 3.0 | 0.00 | 0.00 | 0.00 | 78 | 1020.8 |
| 20260506165021 | 57 | 313 | 0.0 | 3.0 | 0.00 | 0.00 | 0.00 | 78 | 1020.9 |
| 20260506164518 | 57 | 227 | 0.0 | 3.0 | 0.00 | 0.00 | 0.00 | 78 | 1020.9 |
| 20260506164017 | 57 | 44 | 0.0 | 4.0 | 0.00 | 0.00 | 0.00 | 78 | 1021.0 |
| 20260506163517 | 57 | 285 | 1.0 | 4.0 | 0.00 | 0.00 | 0.00 | 78 | 1020.8 |
| 20260506163022 | 57 | 263 | 0.0 | 4.0 | 0.00 | 0.00 | 0.00 | 79 | 1020.9 |
| 20260506162516 | 57 | 244 | 0.0 | 4.0 | 0.00 | 0.00 | 0.00 | 78 | 1020.8 |
| 20260506162020 | 57 | 346 | 2.0 | 4.0 | 0.00 | 0.00 | 0.00 | 78 | 1020.9 |
| 20260506161517 | 57 | 293 | 0.0 | 2.0 | 0.00 | 0.00 | 0.00 | 78 | 1020.8 |
| 20260506161020 | 57 | 311 | 0.0 | 2.0 | 0.00 | 0.00 | 0.00 | 79 | 1020.7 |
| 20260506160518 | 57 | 297 | 0.0 | 2.0 | 0.00 | 0.00 | 0.00 | 78 | 1020.7 |
| 20260506160018 | 57 | 227 | 0.0 | 2.0 | 0.00 | 0.00 | 0.00 | 79 | 1020.6 |
| 20260506155515 | 57 | 271 | 1.0 | 2.0 | 0.00 | 0.00 | 0.00 | 78 | 1020.4 |
| 20260506155015 | 57 | 307 | 0.0 | 2.0 | 0.00 | 0.00 | 0.00 | 79 | 1020.4 |
| 20260506154515 | 57 | 309 | 0.0 | 1.0 | 0.00 | 0.00 | 0.00 | 80 | 1020.0 |
| 20260506154015 | 56 | 124 | 0.0 | 1.0 | 0.00 | 0.00 | 0.00 | 80 | 1020.1 |
| 20260506153515 | 56 | 281 | 0.0 | 1.0 | 0.00 | 0.00 | 0.00 | 81 | 1020.2 |
| 20260506153021 | 55 | 110 | 0.0 | 2.0 | 0.00 | 0.00 | 0.00 | 82 | 1020.4 |
| 20260506152514 | 55 | 127 | 0.0 | 2.0 | 0.00 | 0.00 | 0.00 | 82 | 1020.4 |
| 20260506152014 | 55 | 36 | 0.0 | 2.0 | 0.00 | 0.00 | 0.00 | 82 | 1020.7 |
| 20260506151513 | 55 | 293 | 0.0 | 3.0 | 0.00 | 0.00 | 0.00 | 82 | 1020.8 |
| 20260506151013 | 55 | 47 | 0.0 | 3.0 | 0.00 | 0.00 | 0.00 | 82 | 1020.8 |
| 20260506150513 | 55 | 240 | 0.0 | 3.0 | 0.00 | 0.00 | 0.00 | 82 | 1020.8 |
| 20260506150017 | 55 | 250 | 0.0 | 3.0 | 0.00 | 0.00 | 0.00 | 82 | 1020.8 |
| 20260506145514 | 55 | 13 | 0.0 | 3.0 | 0.00 | 0.00 | 0.00 | 83 | 1020.8 |
| 20260506145012 | 55 | 300 | 0.0 | 3.0 | 0.00 | 0.00 | 0.00 | 83 | 1020.8 |
| 20260506144513 | 55 | 306 | 0.0 | 1.0 | 0.00 | 0.00 | 0.00 | 83 | 1020.6 |
| 20260506144011 | 54 | 296 | 0.0 | 6.0 | 0.00 | 0.00 | 0.00 | 83 | 1020.6 |
| 20260506143511 | 54 | 59 | 1.0 | 6.0 | 0.00 | 0.00 | 0.00 | 83 | 1020.6 |
| 20260506143021 | 54 | 294 | 0.0 | 3.0 | 0.00 | 0.00 | 0.00 | 83 | 1020.6 |
| 20260506142510 | 54 | 307 | 0.0 | 3.0 | 0.00 | 0.00 | 0.00 | 83 | 1020.5 |
| 20260506142008 | 54 | 339 | 0.0 | 1.0 | 0.00 | 0.00 | 0.00 | 84 | 1020.3 |
| 20260506141508 | 54 | 349 | 0.0 | 1.0 | 0.00 | 0.00 | 0.00 | 84 | 1020.1 |
| 20260506141008 | 54 | 292 | 0.0 | 2.0 | 0.00 | 0.00 | 0.00 | 84 | 1020.1 |
| 20260506140507 | 54 | 27 | 0.0 | 3.0 | 0.00 | 0.00 | 0.00 | 84 | 1020.0 |
| 20260506140013 | 54 | 59 | 0.0 | 3.0 | 0.00 | 0.00 | 0.00 | 84 | 1020.1 |
| 20260506135507 | 54 | 313 | 0.0 | 3.0 | 0.00 | 0.00 | 0.00 | 84 | 1020.1 |
| 20260506135006 | 54 | 273 | 1.0 | 4.0 | 0.00 | 0.00 | 0.00 | 84 | 1020.0 |
| 20260506134505 | 54 | 293 | 1.0 | 4.0 | 0.00 | 0.00 | 0.00 | 84 | 1019.9 |
| 20260506134005 | 54 | 231 | 0.0 | 2.0 | 0.00 | 0.00 | 0.00 | 84 | 1019.9 |
| 20260506133508 | 54 | 285 | 0.0 | 2.0 | 0.00 | 0.00 | 0.00 | 84 | 1019.8 |
| 20260506133004 | 54 | 277 | 1.0 | 2.0 | 0.00 | 0.00 | 0.00 | 84 | 1019.9 |
| 20260506132503 | 54 | 259 | 0.0 | 3.0 | 0.00 | 0.00 | 0.00 | 84 | 1019.8 |
| 20260506132002 | 54 | 314 | 0.0 | 3.0 | 0.00 | 0.00 | 0.00 | 84 | 1019.7 |
| 20260506131507 | 55 | 276 | 0.0 | 2.0 | 0.00 | 0.00 | 0.00 | 84 | 1019.5 |
| 20260506131101 | 55 | 269 | 0.0 | 2.0 | 0.00 | 0.00 | 0.00 | 84 | 1019.5 |
| 20260506130601 | 55 | 236 | 0.0 | 1.0 | 0.00 | 0.00 | 0.00 | 84 | 1019.4 |
| 20260506130122 | 55 | 236 | 0.0 | 2.0 | 0.00 | 0.00 | 0.00 | 84 | 1019.3 |
| 20260506125559 | 55 | 236 | 0.0 | 2.0 | 0.00 | 0.00 | 0.00 | 84 | 1019.3 |
| 20260506125059 | 55 | 278 | 0.0 | 1.0 | 0.00 | 0.00 | 0.00 | 84 | 1019.3 |
| 20260506124600 | 55 | 25 | 0.0 | 1.0 | 0.00 | 0.00 | 0.00 | 84 | 1019.3 |
| 20260506124058 | 55 | 25 | 0.0 | 1.0 | 0.00 | 0.00 | 0.00 | 83 | 1019.2 |
| 20260506123558 | 55 | 25 | 0.0 | 1.0 | 0.00 | 0.00 | 0.00 | 83 | 1019.2 |
| 20260506123058 | 55 | 29 | 0.0 | 1.0 | 0.00 | 0.00 | 0.00 | 83 | 1019.1 |
| 20260506122557 | 55 | 269 | 0.0 | 1.0 | 0.00 | 0.00 | 0.00 | 83 | 1019.2 |
| 20260506122056 | 55 | 251 | 0.0 | 1.0 | 0.00 | 0.00 | 0.00 | 83 | 1019.3 |
| 20260506121556 | 55 | 333 | 0.0 | 1.0 | 0.00 | 0.00 | 0.00 | 83 | 1019.2 |
| 20260506121056 | 55 | 333 | 0.0 | 1.0 | 0.00 | 0.00 | 0.00 | 83 | 1019.2 |
| 20260506120559 | 55 | 308 | 0.0 | 4.0 | 0.00 | 0.00 | 0.00 | 83 | 1019.2 |
| 20260506120056 | 55 | 289 | 0.0 | 4.0 | 0.00 | 0.00 | 0.00 | 83 | 1019.2 |
| 20260506115559 | 55 | 254 | 0.0 | 2.0 | 0.00 | 0.00 | 0.00 | 83 | 1019.1 |
| 20260506115055 | 55 | 221 | 0.0 | 1.0 | 0.00 | 0.00 | 0.00 | 83 | 1019.0 |
| 20260506114603 | 55 | 311 | 0.0 | 3.0 | 0.00 | 0.00 | 0.00 | 83 | 1019.1 |
| 20260506114053 | 55 | 283 | 0.0 | 2.0 | 0.00 | 0.00 | 0.00 | 83 | 1019.0 |
| 20260506113553 | 55 | 332 | 0.0 | 2.0 | 0.00 | 0.00 | 0.00 | 83 | 1018.9 |
| 20260506113053 | 55 | 25 | 0.0 | 3.0 | 0.00 | 0.00 | 0.00 | 83 | 1018.9 |
| 20260506112553 | 55 | 25 | 0.0 | 3.0 | 0.00 | 0.00 | 0.00 | 83 | 1018.9 |
| 20260506112055 | 55 | 301 | 0.0 | 2.0 | 0.00 | 0.00 | 0.00 | 83 | 1019.0 |
| 20260506111551 | 55 | 346 | 0.0 | 2.0 | 0.00 | 0.00 | 0.00 | 83 | 1018.8 |
| 20260506111051 | 55 | 7 | 0.0 | 2.0 | 0.00 | 0.00 | 0.00 | 83 | 1018.8 |
| 20260506110551 | 55 | 301 | 0.0 | 2.0 | 0.00 | 0.00 | 0.00 | 83 | 1018.8 |
| 20260506110050 | 55 | 1 | 0.0 | 3.0 | 0.00 | 0.00 | 0.00 | 83 | 1018.6 |
| 20260506105550 | 55 | 302 | 0.0 | 3.0 | 0.00 | 0.00 | 0.00 | 83 | 1018.6 |
| 20260506105049 | 55 | 248 | 1.0 | 3.0 | 0.00 | 0.00 | 0.00 | 83 | 1018.5 |
| 20260506104610 | 55 | 15 | 0.0 | 2.0 | 0.00 | 0.00 | 0.00 | 82 | 1018.5 |
| 20260506104048 | 56 | 347 | 0.0 | 3.0 | 0.00 | 0.00 | 0.00 | 82 | 1018.4 |
| 20260506103548 | 56 | 326 | 0.0 | 3.0 | 0.00 | 0.00 | 0.00 | 82 | 1018.3 |
| 20260506103047 | 56 | 263 | 0.0 | 1.0 | 0.00 | 0.00 | 0.00 | 82 | 1018.3 |
| 20260506102547 | 56 | 25 | 0.0 | 1.0 | 0.00 | 0.00 | 0.00 | 83 | 1018.3 |
| 20260506102046 | 56 | 25 | 0.0 | 1.0 | 0.00 | 0.00 | 0.00 | 82 | 1018.2 |
| 20260506101549 | 56 | 279 | 0.0 | 2.0 | 0.00 | 0.00 | 0.00 | 82 | 1018.2 |
| 20260506101045 | 56 | 18 | 0.0 | 1.0 | 0.00 | 0.00 | 0.00 | 82 | 1018.1 |
| 20260506100545 | 56 | 122 | 0.0 | 0.0 | 0.00 | 0.00 | 0.00 | 82 | 1018.1 |
| 20260506100046 | 56 | 122 | 0.0 | 1.0 | 0.00 | 0.00 | 0.00 | 82 | 1018.0 |
| 20260506095547 | 56 | 226 | 0.0 | 1.0 | 0.00 | 0.00 | 0.00 | 82 | 1018.0 |
| 20260506095044 | 56 | 256 | 0.0 | 3.0 | 0.00 | 0.00 | 0.00 | 82 | 1018.1 |
| 20260506094544 | 56 | 287 | 0.0 | 4.0 | 0.00 | 0.00 | 0.00 | 82 | 1018.0 |
| 20260506094043 | 56 | 285 | 0.0 | 4.0 | 0.00 | 0.00 | 0.00 | 82 | 1017.9 |
| 20260506093542 | 56 | 304 | 0.0 | 2.0 | 0.00 | 0.00 | 0.00 | 82 | 1018.0 |
| 20260506093042 | 56 | 309 | 0.0 | 2.0 | 0.00 | 0.00 | 0.00 | 82 | 1017.8 |
| 20260506092542 | 56 | 244 | 0.0 | 1.0 | 0.00 | 0.00 | 0.00 | 82 | 1017.8 |
| 20260506092042 | 56 | 246 | 0.0 | 1.0 | 0.00 | 0.00 | 0.00 | 82 | 1017.9 |
| 20260506091541 | 56 | 265 | 0.0 | 1.0 | 0.00 | 0.00 | 0.00 | 82 | 1017.9 |
| 20260506091044 | 56 | 286 | 0.0 | 3.0 | 0.00 | 0.00 | 0.00 | 82 | 1017.8 |
| 20260506090540 | 56 | 281 | 0.0 | 3.0 | 0.00 | 0.00 | 0.00 | 81 | 1017.8 |
| 20260506090045 | 56 | 300 | 0.0 | 2.0 | 0.00 | 0.00 | 0.00 | 81 | 1017.7 |
| 20260506085539 | 56 | 312 | 0.0 | 3.0 | 0.00 | 0.00 | 0.00 | 81 | 1017.8 |
| 20260506085041 | 56 | 273 | 0.0 | 3.0 | 0.00 | 0.00 | 0.00 | 81 | 1017.7 |
| 20260506084539 | 56 | 26 | 0.0 | 1.0 | 0.00 | 0.00 | 0.00 | 81 | 1017.9 |
| 20260506084038 | 56 | 34 | 0.0 | 2.0 | 0.00 | 0.00 | 0.00 | 81 | 1017.9 |
| 20260506083537 | 56 | 278 | 0.0 | 2.0 | 0.00 | 0.00 | 0.00 | 81 | 1017.8 |
| 20260506083042 | 56 | 321 | 0.0 | 2.0 | 0.00 | 0.00 | 0.00 | 81 | 1017.8 |
| 20260506082536 | 56 | 236 | 0.0 | 2.0 | 0.00 | 0.00 | 0.00 | 81 | 1017.8 |
| 20260506082036 | 57 | 328 | 0.0 | 2.0 | 0.00 | 0.00 | 0.00 | 81 | 1017.9 |
| 20260506081535 | 57 | 265 | 0.0 | 1.0 | 0.00 | 0.00 | 0.00 | 81 | 1017.8 |
| 20260506081036 | 57 | 304 | 0.0 | 1.0 | 0.00 | 0.00 | 0.00 | 81 | 1017.8 |
| 20260506080535 | 57 | 333 | 0.0 | 1.0 | 0.00 | 0.00 | 0.00 | 81 | 1017.7 |
| 20260506073031 | 57 | 330 | 0.0 | 0.0 | 0.00 | 0.00 | 0.00 | 80 | 1017.4 |
| 20260506072531 | 57 | 330 | 0.0 | 0.0 | 0.00 | 0.00 | 0.00 | 80 | 1017.5 |
| 20260506072030 | 57 | 330 | 0.0 | 1.0 | 0.00 | 0.00 | 0.00 | 80 | 1017.4 |
| 20260506071529 | 57 | 1 | 0.0 | 1.0 | 0.00 | 0.00 | 0.00 | 80 | 1017.5 |
| 20260506071029 | 57 | 43 | 0.0 | 2.0 | 0.00 | 0.00 | 0.00 | 80 | 1017.4 |
| 20260506070528 | 58 | 321 | 0.0 | 0.0 | 0.00 | 0.00 | 0.00 | 80 | 1017.3 |
| 20260506062025 | 58 | 268 | 0.0 | 1.0 | 0.00 | 0.00 | 0.00 | 81 | 1017.1 |
| 20260506061524 | 58 | 267 | 0.0 | 1.0 | 0.00 | 0.00 | 0.00 | 81 | 1017.1 |
| 20260506061027 | 58 | 268 | 0.0 | 1.0 | 0.00 | 0.00 | 0.00 | 81 | 1017.1 |
| 20260506060524 | 58 | 267 | 0.0 | 1.0 | 0.00 | 0.00 | 0.00 | 82 | 1017.1 |